This is the latest recevied weather packets stored in our database for station/object N4HAC. If no packets are shown the sender has not sent any weather packets the latest 10 day(s).
| Time | Temp. | Humidity | Pressure | Rain* | Wind** | Luminosity | Snow |
|---|---|---|---|---|---|---|---|
| 1777573663 | 17.22° C | 42% | 1003.8 hPa | 0 mm | - | 1006 W/m² | - |
| 1777572446 | 17.78° C | 42% | 1003.9 hPa | 0 mm | - | 264 W/m² | - |
| 1777569712 | 17.22° C | 42% | 1003.8 hPa | 0 mm | - | 953 W/m² | - |
| 1777568195 | 17.22° C | 45% | 1003.8 hPa | 0 mm | - | 958 W/m² | - |
| 1777566985 | 16.67° C | 48% | 1003.9 hPa | 0 mm | - | 921 W/m² | - |
| 1777566076 | 17.78° C | 47% | 1004.1 hPa | 0 mm | - | 956 W/m² | - |
| 1777565772 | 17.22° C | 54% | 1004.3 hPa | 0 mm | - | 901 W/m² | - |
| 1777564861 | 16.67° C | 52% | 1004.4 hPa | 0 mm | - | 296 W/m² | - |
| 1777563948 | 16.67° C | 53% | 1004.4 hPa | 0 mm | - | 391 W/m² | - |
| 1777563344 | 15.56° C | 57% | 1004.4 hPa | 0 mm | - | 329 W/m² | - |
| 1777562736 | 16.11° C | 58% | 1004.7 hPa | 0 mm | - | 902 W/m² | - |
| 1777562435 | 15.56° C | 59% | 1004.8 hPa | 0 mm | - | 348 W/m² | - |
| 1777561526 | 15.56° C | 57% | 1004.8 hPa | 0 mm | - | 226 W/m² | - |
| 1777561221 | 15.56° C | 57% | 1004.6 hPa | 0 mm | - | 198 W/m² | - |
| 1777560920 | 15.56° C | 59% | 1004.6 hPa | 0 mm | - | 244 W/m² | - |
| 1777558797 | 15.56° C | 68% | 1004.6 hPa | 0 mm | - | 594 W/m² | - |
| 1777557886 | 15° C | 66% | 1004.8 hPa | 0 mm | - | 572 W/m² | - |
| 1777557279 | 14.44° C | 68% | 1004.7 hPa | 0 mm | - | 135 W/m² | - |
| 1777556367 | 15° C | 69% | 1005 hPa | 0 mm | - | 282 W/m² | - |
| 1777556062 | 14.44° C | 68% | 1004.7 hPa | 0 mm | - | 471 W/m² | - |
| 1777555762 | 15° C | 69% | 1004.7 hPa | 0 mm | - | 475 W/m² | - |
| 1777555459 | 14.44° C | 71% | 1004.6 hPa | 0 mm | - | 464 W/m² | - |
| 1777555155 | 14.44° C | 72% | 1004.9 hPa | 0 mm | - | 454 W/m² | - |
| 1777554853 | 14.44° C | 71% | 1004.6 hPa | 0 mm | - | 444 W/m² | - |
| 1777554550 | 13.89° C | 73% | 1004.6 hPa | 0 mm | - | 437 W/m² | - |
* Rain latest hour (hover to see other rain measurements)
** Current wind speed in m/s (hover to see current wind gust speed)